Weather History for KCHK - March, 2013

Change the Weather History Date:

Monday, March 4, 2013

  Actual Average Record
Temperature  
Mean Temperature 55 °F -  
Max Temperature 68 °F 60 °F 83 °F (1955)
Min Temperature 42 °F 34 °F 8 °F (1978)
Degree Days  
Heating Degree Days 10    
Growing Degree Days 5 (Base 50)    
Moisture  
Dew Point 38 °F    
Average Humidity 56    
Maximum Humidity 87    
Minimum Humidity 39    
Precipitation  
Precipitation 0.00 in - - ()
Sea Level Pressure  
Sea Level Pressure 29.67 in    
Wind  
Wind Speed 16 mph (NNW)    
Max Wind Speed 34 mph    
Max Gust Speed 48 mph    
Visibility 10 miles    
Events      
Averages and records for this station are not official NWS values.
T = Trace of Precipitation, MM = Missing Value Source: NWS Daily Summary

Daily Weather History Graph

Daily Weather History Graph

Search for Another Location

Airport or City:

Trip Planner

Search our weather history database for the weather conditions in past years. The results will help you decide how hot, cold, wet, or windy it might be!

Date:

Astronomy

Mar. 04, 2013 Rise Set
Actual Time 6:57 AM CST 6:30 PM CST
Civil Twilight 6:31 AM CST 6:55 PM CST
Nautical Twilight 6:02 AM CST 7:25 PM CST
Astronomical Twilight 5:33 AM CST 7:54 PM CST
Moon 12:58 AM CST (3/4) 11:22 AM CST (3/4)
Length of Visible Light 12h 24m
Length of Day
11h 33m
Waning Gibbous, 52% of the Moon is Illuminated
Mar 4
Waning Gibbous
Mar 4
Last Quarter
Mar 11
New
Mar 19
First Quarter
Mar 27
Full

Hourly Weather History & Observations

Time (CST) Temp. Windchill Dew Point Humidity Pressure Visibility Wind Dir Wind Speed Gust Speed Precip Events Conditions
12:15 AM 59.0 °F - 35.6 °F 42% 29.58 in 10.0 mi South 17.3 mph 27.6 mph N/A   Scattered Clouds
12:35 AM 59.0 °F - 35.6 °F 42% 29.58 in 10.0 mi South 17.3 mph - N/A   Scattered Clouds
12:55 AM 59.0 °F - 35.6 °F 42% 29.57 in 10.0 mi South 17.3 mph 25.3 mph N/A   Scattered Clouds
1:15 AM 59.0 °F - 33.8 °F 39% 29.56 in 10.0 mi South 19.6 mph 25.3 mph N/A   Scattered Clouds
1:35 AM 59.0 °F - 35.6 °F 42% 29.56 in 10.0 mi South 15.0 mph 24.2 mph N/A   Scattered Clouds
1:55 AM 59.0 °F - 33.8 °F 39% 29.56 in 10.0 mi South 15.0 mph - N/A   Clear
2:15 AM 59.0 °F - 33.8 °F 39% 29.56 in 10.0 mi SW 13.8 mph 26.5 mph N/A   Clear
2:35 AM 55.4 °F - 33.8 °F 44% 29.56 in 10.0 mi SSW 10.4 mph - N/A   Clear
2:55 AM 57.2 °F - 33.8 °F 41% 29.54 in 10.0 mi SSW 17.3 mph 23.0 mph N/A   Scattered Clouds
3:15 AM 55.4 °F - 32.0 °F 41% 29.54 in 10.0 mi SSW 15.0 mph 19.6 mph N/A   Scattered Clouds
3:35 AM 55.4 °F - 32.0 °F 41% 29.54 in 10.0 mi South 11.5 mph - N/A   Scattered Clouds
3:55 AM 55.4 °F - 32.0 °F 41% 29.53 in 10.0 mi South 15.0 mph 21.9 mph N/A   Clear
4:15 AM 55.4 °F - 32.0 °F 41% 29.52 in 10.0 mi South 15.0 mph 23.0 mph N/A   Clear
4:35 AM 55.4 °F - 32.0 °F 41% 29.53 in 10.0 mi SSW 13.8 mph 21.9 mph N/A   Clear
4:55 AM 55.4 °F - 32.0 °F 41% 29.52 in 10.0 mi South 15.0 mph 20.7 mph N/A   Clear
5:15 AM 55.4 °F - 32.0 °F 41% 29.53 in 10.0 mi South 12.7 mph - N/A   Clear
5:35 AM 53.6 °F - 32.0 °F 44% 29.53 in 10.0 mi SSW 15.0 mph - N/A   Clear
6:15 AM 53.6 °F - 32.0 °F 44% 29.53 in 10.0 mi SSW 10.4 mph - N/A   Clear
6:35 AM 53.6 °F - 32.0 °F 44% 29.55 in 10.0 mi SW 9.2 mph - N/A   Clear
6:55 AM 50.0 °F - 32.0 °F 50% 29.56 in 10.0 mi WSW 6.9 mph - N/A   Clear
7:15 AM 48.2 °F - 32.0 °F 54% 29.56 in 10.0 mi SW 4.6 mph - N/A   Clear
7:35 AM 48.2 °F - 33.8 °F 58% 29.57 in 10.0 mi WSW 8.1 mph - N/A   Clear
7:55 AM 50.0 °F - 35.6 °F 58% 29.58 in 10.0 mi West 11.5 mph - N/A   Clear
8:15 AM 50.0 °F - 37.4 °F 62% 29.59 in 10.0 mi West 12.7 mph - N/A   Clear
8:35 AM 51.8 °F - 37.4 °F 58% 29.60 in 10.0 mi WNW 15.0 mph 18.4 mph N/A   Clear
8:55 AM 51.8 °F - 37.4 °F 58% 29.61 in 10.0 mi WNW 15.0 mph - N/A   Clear
9:15 AM 53.6 °F - 41.0 °F 62% 29.62 in 10.0 mi NW 15.0 mph 20.7 mph N/A   Clear
9:35 AM 53.6 °F - 41.0 °F 62% 29.62 in 10.0 mi NW 16.1 mph 19.6 mph N/A   Clear
9:55 AM 53.6 °F - 39.2 °F 58% 29.63 in 10.0 mi NW 16.1 mph - N/A   Clear
10:15 AM 55.4 °F - 41.0 °F 58% 29.63 in 10.0 mi NW 12.7 mph - N/A   Clear
10:35 AM 59.0 °F - 41.0 °F 51% 29.62 in 10.0 mi NW 12.7 mph 18.4 mph N/A   Clear
10:55 AM 59.0 °F - 41.0 °F 51% 29.63 in 10.0 mi NNW 10.4 mph - N/A   Clear
11:15 AM 60.8 °F - 41.0 °F 48% 29.63 in 10.0 mi North 10.4 mph - N/A   Clear
11:35 AM 62.6 °F - 41.0 °F 45% 29.63 in 10.0 mi NNW 11.5 mph 16.1 mph N/A   Clear
11:55 AM 62.6 °F - 41.0 °F 45% 29.65 in 10.0 mi NNW 9.2 mph - N/A   Clear
12:15 PM 66.2 °F - 42.8 °F 43% 29.64 in 10.0 mi NW 11.5 mph 17.3 mph N/A   Clear
12:55 PM 68.0 °F - 44.6 °F 43% 29.64 in 10.0 mi North 13.8 mph - N/A   Clear
1:15 PM 68.0 °F - 44.6 °F 43% 29.63 in 10.0 mi North 11.5 mph - N/A   Clear
1:35 PM 68.0 °F - 44.6 °F 43% 29.63 in 10.0 mi North 12.7 mph - N/A   Clear
1:55 PM 66.2 °F - 42.8 °F 43% 29.64 in 10.0 mi NNE 11.5 mph 18.4 mph N/A   Clear
2:15 PM 68.0 °F - 44.6 °F 43% 29.63 in 10.0 mi North 15.0 mph 20.7 mph N/A   Clear
2:35 PM 66.2 °F - 44.6 °F 46% 29.64 in 10.0 mi North 13.8 mph - N/A   Clear
3:15 PM 66.2 °F - 44.6 °F 46% 29.65 in 10.0 mi North 15.0 mph 20.7 mph N/A   Clear
3:35 PM 66.2 °F - 46.4 °F 49% 29.65 in 10.0 mi North 16.1 mph - N/A   Clear
3:55 PM 64.4 °F - 44.6 °F 49% 29.65 in 10.0 mi North 16.1 mph - N/A   Clear
4:15 PM 62.6 °F - 44.6 °F 52% 29.65 in 10.0 mi North 16.1 mph - N/A   Clear
4:35 PM 62.6 °F - 44.6 °F 52% 29.67 in 10.0 mi North 20.7 mph 24.2 mph N/A   Clear
4:55 PM 60.8 °F - 44.6 °F 55% 29.68 in 10.0 mi North 18.4 mph - N/A   Clear
5:15 PM 59.0 °F - 44.6 °F 59% 29.69 in 10.0 mi North 18.4 mph - N/A   Clear
5:35 PM 55.4 °F - 44.6 °F 67% 29.70 in 10.0 mi North 17.3 mph 21.9 mph N/A   Clear
5:55 PM 55.4 °F - 44.6 °F 67% 29.71 in 10.0 mi North 16.1 mph - N/A   Clear
6:15 PM 53.6 °F - 44.6 °F 72% 29.73 in 10.0 mi North 18.4 mph - N/A   Clear
6:35 PM 51.8 °F - 42.8 °F 71% 29.74 in 10.0 mi North 16.1 mph - N/A   Clear
6:55 PM 48.2 °F - 42.8 °F 82% 29.75 in 10.0 mi North 16.1 mph - N/A   Clear
7:15 PM 48.2 °F - 42.8 °F 82% 29.77 in 10.0 mi North 21.9 mph - N/A   Clear
7:35 PM 46.4 °F 37.2 °F 41.0 °F 81% 29.77 in 10.0 mi North 29.9 mph 38.0 mph N/A   Clear
7:55 PM 44.6 °F 35.1 °F 41.0 °F 87% 29.79 in 10.0 mi North 27.6 mph 41.4 mph N/A   Clear
8:15 PM 42.8 °F 32.7 °F 39.2 °F 87% 29.82 in 10.0 mi North 27.6 mph 34.5 mph N/A   Clear
8:35 PM 44.6 °F 34.4 °F 41.0 °F 87% 29.85 in 10.0 mi North 32.2 mph 38.0 mph N/A   Mostly Cloudy
8:55 PM 44.6 °F 34.9 °F 39.2 °F 81% 29.87 in 10.0 mi North 28.8 mph 41.4 mph N/A   Overcast
9:15 PM 44.6 °F 34.9 °F 37.4 °F 76% 29.87 in 10.0 mi North 28.8 mph 48.3 mph N/A   Mostly Cloudy
9:35 PM 42.8 °F 32.5 °F 37.4 °F 81% 29.93 in 10.0 mi North 28.8 mph 40.3 mph N/A   Scattered Clouds
9:55 PM 42.8 °F 32.9 °F 35.6 °F 76% 29.95 in 10.0 mi North 26.5 mph 35.7 mph N/A   Clear
10:15 PM 42.8 °F 31.9 °F 35.6 °F 76% 29.94 in 10.0 mi North 32.2 mph 41.4 mph N/A   Clear
10:35 PM 42.8 °F 31.8 °F 35.6 °F 76% 29.97 in 10.0 mi North 33.4 mph 44.9 mph N/A   Clear
10:55 PM 42.8 °F 31.8 °F 35.6 °F 76% 29.98 in 10.0 mi North 33.4 mph 43.7 mph N/A   Clear
11:15 PM 42.8 °F 32.1 °F 35.6 °F 76% 30.00 in 10.0 mi North 31.1 mph 43.7 mph N/A   Mostly Cloudy
11:35 PM 42.8 °F 31.8 °F 35.6 °F 76% 30.01 in 10.0 mi North 33.4 mph 44.9 mph N/A   Overcast
11:55 PM 42.8 °F 31.6 °F 35.6 °F 76% 30.05 in 10.0 mi North 34.5 mph 43.7 mph N/A   Overcast